Flag for Norway Weather past 2 weeks in Stavanger, Norway

Now
48 °F

Sprinkles. Partly sunny.


Feels Like: 48 °F
Forecast: 43 / 49 °F
Wind: 2 mph from North

Location: Stavanger / Sola

Current Time: May 29, 2015 at 10:40:29 PM

Latest Report: May 29, 2015 at 9:50 PM


Visibility: N/A

Pressure: 29.56 "Hg

Humidity: 71%

Dew point: 39 °F

Location of StavangerLocation

Historic Weather in Stavanger — Graph

°F

Stavanger temperature yesterday

Maximum temperature yesterday: 50 °F (at 5:20 PM)
Minimum temperature yesterday: 45 °F (at 6:20 AM)
Average temperature yesterday: 48 °F

Past Weeks' High & Low Weather Summary

 TemperatureHumidityPressure
High54 °F (May 18, 12:50 PM)100% (May 18, 1:50 AM)30.18 "Hg (May 18, 1:50 AM)
Low37 °F (May 15, 6:50 AM)47% (May 18, 5:20 PM)29.24 "Hg (May 19, 5:50 AM)
Average48 °F80%29.83 "Hg
* Reported May 14 9:20 PM — May 29 9:20 PM, Stavanger, Weather by CustomWeather, © 2015

Note: Actual official high and low records may vary slightly from our data, if they occured in-between our weather recording intervals... More about our weather records

Advertising

Stavanger weather history for previous 24 hours

 ConditionsComfort  
Time TempWeatherWind HumidityBarometerVisibility
9:20 PM
Fri, May 29
48 °FScattered showers. Broken clouds.No wind71%29.56 "HgN/A
8:50 PM48 °FBroken clouds.1 mph71%29.56 "HgN/A
8:20 PM48 °FScattered showers. Scattered clouds.7 mph71%29.56 "HgN/A
7:50 PM48 °FBroken clouds.5 mph71%29.56 "HgN/A
7:20 PM50 °FScattered showers. Broken clouds.7 mph76%29.56 "HgN/A
6:50 PM50 °FBroken clouds.10 mph71%29.56 "HgN/A
6:20 PM50 °FBroken clouds.9 mph71%29.56 "HgN/A
5:50 PM50 °FBroken clouds.9 mph71%29.56 "HgN/A
5:20 PM50 °FBroken clouds.9 mph71%29.56 "HgN/A
4:50 PM50 °FScattered showers. Broken clouds.13 mph71%29.56 "HgN/A
4:20 PM52 °FScattered showers. Broken clouds.13 mph72%29.56 "HgN/A
3:50 PM52 °FScattered showers. Partly sunny.14 mph72%29.56 "HgN/A
3:20 PM52 °FScattered showers. Broken clouds.15 mph67%29.56 "HgN/A
2:50 PM52 °FBroken clouds.12 mph72%29.56 "HgN/A
2:20 PM54 °FBroken clouds.14 mph67%29.56 "HgN/A
1:50 PM52 °FScattered showers. Broken clouds.14 mph72%29.56 "HgN/A
1:20 PM50 °FScattered showers. Broken clouds.16 mph76%29.56 "HgN/A
12:50 PM52 °FScattered showers. Broken clouds.14 mph77%29.56 "HgN/A
12:20 PM52 °FScattered showers. Broken clouds.16 mph72%29.56 "HgN/A
11:50 AM52 °FScattered showers. Broken clouds.15 mph67%29.56 "HgN/A
11:20 AM54 °FScattered clouds.15 mph63%29.56 "HgN/A
10:50 AM52 °FScattered clouds.14 mph67%29.56 "HgN/A
10:20 AM52 °FScattered clouds.13 mph72%29.56 "HgN/A
9:50 AM52 °FScattered clouds.12 mph72%29.56 "HgN/A
9:20 AM50 °FScattered clouds.10 mph76%29.56 "HgN/A
8:50 AM50 °FScattered showers. Scattered clouds.13 mph76%29.56 "HgN/A
8:20 AM50 °FScattered clouds.12 mph76%29.56 "HgN/A
7:50 AM48 °FBroken clouds.9 mph82%29.56 "HgN/A
7:20 AM45 °FScattered showers. Broken clouds.6 mph93%29.56 "HgN/A
6:50 AM45 °FScattered showers. Broken clouds.6 mph93%29.56 "HgN/A
6:20 AM45 °FSprinkles. Broken clouds.6 mph93%29.56 "HgN/A
5:50 AM45 °FSprinkles. Broken clouds.5 mph87%29.56 "HgN/A
4:50 AM43 °FPassing clouds.6 mph93%29.56 "HgN/A
3:50 AM41 °FPassing clouds.6 mph93%29.56 "HgN/A
2:50 AM43 °FPassing clouds.5 mph87%29.56 "HgN/A
1:50 AM45 °FPassing clouds.5 mph81%29.56 "HgN/A
1:20 AM46 °FPassing clouds.5 mph82%29.56 "HgN/A
11:50 PM
Thu, May 28
46 °FPassing clouds.10 mph82%29.59 "HgN/A
11:20 PM48 °FScattered clouds.10 mph76%29.59 "HgN/A
10:50 PM48 °FScattered clouds.10 mph76%29.59 "HgN/A
10:20 PM48 °FBroken clouds.12 mph76%29.59 "HgN/A
Weather by CustomWeather, © 2015

See weather overviewHow to use our weather pages